STARLINK-30039 (57468 NORAD) Tracking and Keplerian Element Data

This shows tracking and keplerian element data for the satellite.

Feedback or suggestion? Click here.




ElementValue
Catalog57468
NameSTARLINK-30039
Epoch Orbit2676
Epoch Day12.9164366
Epoch Year2024
RAAN293.9501
Inclination43.0028
Eccentricity9.79E-05
Argument of Perigee251.1564
Mean Anonmoly108.9172
Mean Motion15.02529812
Decay Rate-1.629E-05
L11 57468U 23107M 24012.91643660 -.00001629 00000+0 -10554-3 0 9994
L22 57468 43.0028 293.9501 0000979 251.1564 108.9172 15.02529812 26761



Live tracking and technical data element details for STARLINK-30039 (NORAD 57468). STARLINK-30039 can be tracked NOW for your location showing map with azimuth and elevation plus other details from your city location.







IsCatalogInMostPopularTable: catalog: 57468, numindb: 8
Update: records affected: 1



GetName: 57468 STARLINK-30039

Hit Count: updated at: Thu, 22 Feb 2024 01:22:30 GMT